START_TIME,STEP,MOV.,P11,t_acc.,P23,t_acc.,P27,t_acc.,A4,t_acc.
1981-08-29 09:00:23.730 ,4,0,1.,4.8,0.,4.8,1.,4.8,0.,4.8
1981-08-29 09:00:28.530 ,4,0,1.,4.8,1.,4.8,0.,4.8,0.,4.8
1981-08-29 09:00:33.330 ,4,0,0.,4.8,0.,4.8,0.,4.8,0.,4.8
1981-08-29 09:00:38.130 ,4,0,1.,4.8,0.,4.8,0.,4.8,0.,4.8
1981-08-29 09:00:42.930 ,4,0,0.,4.8,0.,4.8,0.,4.8,0.,4.8
1981-08-29 09:00:47.730 ,3,0,0.,4.8,0.,4.8,0.,4.8,0.,4.8
1981-08-29 09:00:52.530 ,3,0,0.,4.8,0.,4.8,0.,4.8,0.,4.8
1981-08-29 09:00:57.330 ,3,0,0.,4.8,0.,4.8,0.,4.8,0.,4.8
1981-08-29 09:01:02.130 ,3,0,0.,4.8,0.,4.8,0.,4.8,0.,4.8
1981-08-29 09:01:06.930 ,3,0,0.,4.8,0.,4.8,0.,4.8,0.,4.8
1981-08-29 09:01:11.730 ,2,0,2.,4.8,0.,4.8,0.,4.8,0.,4.8
1981-08-29 09:01:16.530 ,2,0,1.,4.8,0.,4.8,0.,4.8,0.,4.8
1981-08-29 09:01:21.330 ,2,0,1.,4.8,0.,4.8,0.,4.8,0.,4.8
1981-08-29 09:01:26.130 ,2,0,1.,4.8,0.,4.8,0.,4.8,0.,4.8
1981-08-29 09:01:30.930 ,2,0,0.,4.8,0.,4.8,0.,4.8,0.,4.8
1981-08-29 09:01:35.730 ,1,0,0.,4.8,0.,4.8,0.,4.8,0.,4.8
1981-08-29 09:01:40.530 ,1,0,1.,4.8,0.,4.8,0.,4.8,0.,4.8
1981-08-29 09:01:45.330 ,1,0,0.,4.8,0.,4.8,0.,4.8,0.,4.8
1981-08-29 09:01:50.130 ,1,0,0.,4.8,0.,4.8,1.,4.8,0.,4.8
1981-08-29 09:01:54.930 ,1,0,0.,4.8,0.,4.8,0.,4.8,0.,4.8
1981-08-29 09:01:59.730 ,0,0,0.,4.8,0.,4.8,0.,4.8,0.,4.8
1981-08-29 09:02:04.530 ,0,0,2.,4.8,0.,4.8,0.,4.8,0.,4.8
1981-08-29 09:02:09.330 ,0,0,1.,4.8,0.,4.8,0.,4.8,0.,4.8
1981-08-29 09:02:14.130 ,0,0,1.,4.8,0.,4.8,0.,4.8,0.,4.8
1981-08-29 09:02:18.930 ,0,0,1.,4.8,0.,4.8,0.,4.8,0.,4.8
1981-08-29 09:02:23.730 ,0,0,0.,4.8,0.,4.8,0.,4.8,0.,4.8
1981-08-29 09:02:28.530 ,0,0,0.,4.8,0.,4.8,0.,4.8,0.,4.8
1981-08-29 09:02:33.330 ,0,0,0.,4.8,0.,4.8,0.,4.8,0.,4.8
1981-08-29 09:02:38.130 ,0,0,0.,4.8,0.,4.8,0.,4.8,0.,4.8
1981-08-29 09:02:42.930 ,0,0,0.,4.8,0.,4.8,0.,4.8,0.,4.8
1981-08-29 09:02:47.730 ,1,0,4.,4.8,0.,4.8,2.,4.8,0.,4.8
1981-08-29 09:02:52.530 ,1,0,0.,4.8,0.,4.8,0.,4.8,0.,4.8
1981-08-29 09:02:57.330 ,1,0,1.,4.8,0.,4.8,0.,4.8,0.,4.8
1981-08-29 09:03:02.130 ,1,0,0.,4.8,0.,4.8,0.,4.8,0.,4.8
1981-08-29 09:03:06.930 ,1,0,0.,4.8,0.,4.8,0.,4.8,0.,4.8
1981-08-29 09:03:11.730 ,2,0,0.,4.8,0.,4.8,0.,4.8,0.,4.8
1981-08-29 09:03:16.530 ,2,0,2.,4.8,0.,4.8,1.,4.8,0.,4.8
1981-08-29 09:03:21.330 ,2,0,0.,4.8,0.,4.8,0.,4.8,0.,4.8
1981-08-29 09:03:26.130 ,2,0,0.,4.8,0.,4.8,0.,4.8,0.,4.8
1981-08-29 09:03:30.930 ,2,0,0.,4.8,0.,4.8,0.,4.8,0.,4.8
1981-08-29 09:03:35.730 ,3,0,0.,4.8,0.,4.8,0.,4.8,0.,4.8
1981-08-29 09:03:40.530 ,3,0,0.,4.8,0.,4.8,0.,4.8,0.,4.8
1981-08-29 09:03:45.330 ,3,0,0.,4.8,0.,4.8,0.,4.8,0.,4.8
1981-08-29 09:03:50.130 ,3,0,0.,4.8,0.,4.8,0.,4.8,0.,4.8
1981-08-29 09:03:54.930 ,3,0,0.,4.8,0.,4.8,0.,4.8,0.,4.8
1981-08-29 09:03:59.730 ,4,0,1.,4.8,0.,4.8,0.,4.8,0.,4.8
1981-08-29 09:04:04.530 ,4,0,0.,4.8,1.,4.8,0.,4.8,0.,4.8
1981-08-29 09:04:09.330 ,4,0,0.,4.8,0.,4.8,0.,4.8,0.,4.8
1981-08-29 09:04:14.130 ,4,0,0.,4.8,0.,4.8,0.,4.8,0.,4.8
1981-08-29 09:04:18.930 ,4,0,0.,4.8,0.,4.8,0.,4.8,0.,4.8
1981-08-29 09:04:23.730 ,5,0,0.,4.8,0.,4.8,0.,4.8,0.,4.8
1981-08-29 09:04:28.530 ,5,0,2.,4.8,0.,4.8,0.,4.8,0.,4.8
1981-08-29 09:04:33.330 ,5,0,0.,4.8,0.,4.8,0.,4.8,0.,4.8
1981-08-29 09:04:38.130 ,5,0,1.,4.8,0.,4.8,0.,4.8,0.,4.8
1981-08-29 09:04:42.930 ,5,0,0.,4.8,0.,4.8,0.,4.8,0.,4.8
1981-08-29 09:04:47.730 ,6,0,0.,4.8,0.,4.8,0.,4.8,0.,4.8
1981-08-29 09:04:52.530 ,6,0,0.,4.8,0.,4.8,0.,4.8,0.,4.8
1981-08-29 09:04:57.330 ,6,0,1.,4.8,0.,4.8,1.,4.8,0.,4.8
1981-08-29 09:05:02.130 ,6,0,0.,4.8,0.,4.8,0.,4.8,0.,4.8
1981-08-29 09:05:06.930 ,6,0,0.,4.8,0.,4.8,0.,4.8,0.,4.8
1981-08-29 09:05:11.730 ,7,0,1.,4.8,0.,4.8,0.,4.8,0.,4.8
1981-08-29 09:05:16.530 ,7,0,1.,4.8,0.,4.8,1.,4.8,0.,4.8
1981-08-29 09:05:21.330 ,7,0,0.,4.8,0.,4.8,1.,4.8,0.,4.8
1981-08-29 09:05:26.130 ,7,0,0.,4.8,0.,4.8,0.,4.8,0.,4.8
1981-08-29 09:05:30.930 ,7,0,0.,4.8,0.,4.8,2.,4.8,0.,4.8
1981-08-29 09:05:35.730 ,7,0,0.,4.8,0.,4.8,0.,4.8,0.,4.8
1981-08-29 09:05:40.530 ,7,0,0.,4.8,0.,4.8,0.,4.8,0.,4.8
1981-08-29 09:05:45.330 ,7,0,0.,4.8,0.,4.8,0.,4.8,0.,4.8
1981-08-29 09:05:50.130 ,7,0,1.,4.8,0.,4.8,0.,4.8,0.,4.8
1981-08-29 09:05:54.930 ,7,0,1.,4.8,0.,4.8,0.,4.8,0.,4.8
1981-08-29 09:05:59.730 ,7,0,2.,4.8,0.,4.8,1.,4.8,0.,4.8
1981-08-29 09:06:04.530 ,7,0,1.,4.8,0.,4.8,1.,4.8,0.,4.8
1981-08-29 09:06:09.330 ,7,0,1.,4.8,0.,4.8,0.,4.8,0.,4.8
1981-08-29 09:06:14.130 ,7,0,0.,4.8,0.,4.8,0.,4.8,0.,4.8
1981-08-29 09:06:18.930 ,7,0,0.,4.8,0.,4.8,0.,4.8,0.,4.8
1981-08-29 09:06:23.730 ,6,0,2.,4.8,0.,4.8,0.,4.8,0.,4.8
1981-08-29 09:06:28.530 ,6,0,0.,4.8,0.,4.8,0.,4.8,0.,4.8
1981-08-29 09:06:33.330 ,6,0,1.,4.8,0.,4.8,0.,4.8,0.,4.8
1981-08-29 09:06:38.130 ,6,0,0.,4.8,0.,4.8,0.,4.8,0.,4.8
1981-08-29 09:06:42.930 ,6,0,1.,4.8,0.,4.8,1.,4.8,0.,4.8
1981-08-29 09:06:47.730 ,6,0,0.,4.8,0.,4.8,0.,4.8,0.,4.8
1981-08-29 09:06:52.530 ,6,0,1.,4.8,0.,4.8,0.,4.8,0.,4.8
1981-08-29 09:06:57.330 ,6,0,0.,4.8,0.,4.8,0.,4.8,0.,4.8
1981-08-29 09:07:02.130 ,6,0,0.,4.8,1.,4.8,0.,4.8,0.,4.8
1981-08-29 09:07:06.930 ,6,0,0.,4.8,0.,4.8,0.,4.8,0.,4.8
1981-08-29 09:07:11.730 ,5,0,0.,4.8,0.,4.8,0.,4.8,0.,4.8
1981-08-29 09:07:16.530 ,5,0,0.,4.8,0.,4.8,0.,4.8,0.,4.8
1981-08-29 09:07:21.330 ,5,0,1.,4.8,0.,4.8,0.,4.8,0.,4.8
1981-08-29 09:07:26.130 ,5,0,0.,4.8,0.,4.8,0.,4.8,0.,4.8
1981-08-29 09:07:30.930 ,5,0,0.,4.8,0.,4.8,0.,4.8,0.,4.8
1981-08-29 09:07:35.730 ,5,0,1.,4.8,0.,4.8,0.,4.8,0.,4.8
1981-08-29 09:07:40.530 ,5,0,0.,4.8,0.,4.8,0.,4.8,0.,4.8
1981-08-29 09:07:45.330 ,5,0,0.,4.8,0.,4.8,0.,4.8,0.,4.8
1981-08-29 09:07:50.130 ,5,0,0.,4.8,0.,4.8,0.,4.8,0.,4.8
1981-08-29 09:07:54.930 ,5,0,0.,4.8,0.,4.8,0.,4.8,0.,4.8
1981-08-29 09:07:59.730 ,4,0,0.,4.8,0.,4.8,0.,4.8,0.,4.8
1981-08-29 09:08:04.530 ,4,0,0.,4.8,0.,4.8,0.,4.8,0.,4.8
1981-08-29 09:08:09.330 ,4,0,0.,4.8,0.,4.8,0.,4.8,0.,4.8
1981-08-29 09:08:14.130 ,4,0,0.,4.8,0.,4.8,0.,4.8,0.,4.8
1981-08-29 09:08:18.930 ,4,0,0.,4.8,0.,4.8,0.,4.8,0.,4.8
1981-08-29 09:08:23.730 ,4,0,0.,4.8,0.,4.8,0.,4.8,0.,4.8
1981-08-29 09:08:28.530 ,4,0,0.,4.8,0.,4.8,0.,4.8,0.,4.8
1981-08-29 09:08:33.330 ,4,0,2.,4.8,0.,4.8,0.,4.8,0.,4.8
1981-08-29 09:08:38.130 ,4,0,1.,4.8,0.,4.8,0.,4.8,0.,4.8
1981-08-29 09:08:42.930 ,4,0,0.,4.8,0.,4.8,1.,4.8,0.,4.8
1981-08-29 09:08:47.730 ,3,0,0.,4.8,0.,4.8,0.,4.8,0.,4.8
1981-08-29 09:08:52.530 ,3,0,0.,4.8,0.,4.8,0.,4.8,0.,4.8
1981-08-29 09:08:57.330 ,3,0,0.,4.8,0.,4.8,0.,4.8,0.,4.8
1981-08-29 09:09:02.130 ,3,0,1.,4.8,0.,4.8,0.,4.8,0.,4.8
1981-08-29 09:09:06.930 ,3,0,0.,4.8,0.,4.8,0.,4.8,0.,4.8
1981-08-29 09:09:11.730 ,3,0,0.,4.8,1.,4.8,0.,4.8,0.,4.8
1981-08-29 09:09:16.530 ,3,0,1.,4.8,0.,4.8,0.,4.8,0.,4.8
1981-08-29 09:09:21.330 ,3,0,0.,4.8,0.,4.8,0.,4.8,0.,4.8
1981-08-29 09:09:26.130 ,3,0,0.,4.8,0.,4.8,0.,4.8,0.,4.8
1981-08-29 09:09:30.930 ,3,0,0.,4.8,0.,4.8,0.,4.8,0.,4.8
1981-08-29 09:09:35.730 ,2,0,1.,4.8,0.,4.8,0.,4.8,0.,4.8
1981-08-29 09:09:40.530 ,2,0,0.,4.8,0.,4.8,0.,4.8,0.,4.8
1981-08-29 09:09:45.330 ,2,0,0.,4.8,0.,4.8,0.,4.8,0.,4.8
1981-08-29 09:09:50.130 ,2,0,0.,4.8,0.,4.8,0.,4.8,0.,4.8
1981-08-29 09:09:54.930 ,2,0,0.,4.8,0.,4.8,0.,4.8,0.,4.8
1981-08-29 09:09:59.730 ,2,0,0.,4.8,0.,4.8,0.,4.8,0.,4.8
1981-08-29 09:10:04.530 ,2,0,0.,4.8,1.,4.8,0.,4.8,0.,4.8
1981-08-29 09:10:09.330 ,2,0,4.,4.8,0.,4.8,0.,4.8,0.,4.8
1981-08-29 09:10:14.130 ,2,0,0.,4.8,0.,4.8,0.,4.8,0.,4.8
1981-08-29 09:10:18.930 ,2,0,0.,4.8,0.,4.8,0.,4.8,0.,4.8
1981-08-29 09:10:23.730 ,1,0,1.,4.8,0.,4.8,0.,4.8,0.,4.8
1981-08-29 09:10:28.530 ,1,0,0.,4.8,0.,4.8,0.,4.8,0.,4.8
1981-08-29 09:10:33.330 ,1,0,0.,4.8,0.,4.8,0.,4.8,0.,4.8
1981-08-29 09:10:38.130 ,1,0,1.,4.8,0.,4.8,0.,4.8,0.,4.8
1981-08-29 09:10:42.930 ,1,0,0.,4.8,0.,4.8,0.,4.8,0.,4.8
1981-08-29 09:10:47.730 ,1,0,0.,4.8,0.,4.8,0.,4.8,0.,4.8
1981-08-29 09:10:52.530 ,1,0,0.,4.8,0.,4.8,0.,4.8,0.,4.8
1981-08-29 09:10:57.330 ,1,0,0.,4.8,0.,4.8,0.,4.8,0.,4.8
1981-08-29 09:11:02.130 ,1,0,1.,4.8,0.,4.8,0.,4.8,0.,4.8
1981-08-29 09:11:06.930 ,1,0,1.,4.8,0.,4.8,0.,4.8,0.,4.8
1981-08-29 09:11:11.730 ,0,0,0.,4.8,0.,4.8,0.,4.8,0.,4.8
1981-08-29 09:11:16.530 ,0,0,0.,4.8,0.,4.8,0.,4.8,0.,4.8
1981-08-29 09:11:21.330 ,0,0,0.,4.8,0.,4.8,0.,4.8,0.,4.8
1981-08-29 09:11:26.130 ,0,0,0.,4.8,0.,4.8,0.,4.8,0.,4.8
1981-08-29 09:11:30.930 ,0,0,0.,4.8,0.,4.8,0.,4.8,0.,4.8
1981-08-29 09:11:35.730 ,0,0,0.,4.8,1.,4.8,0.,4.8,0.,4.8
1981-08-29 09:11:40.530 ,0,0,1.,4.8,0.,4.8,0.,4.8,0.,4.8
1981-08-29 09:11:45.330 ,0,0,0.,4.8,0.,4.8,0.,4.8,0.,4.8
1981-08-29 09:11:50.130 ,0,0,0.,4.8,0.,4.8,0.,4.8,0.,4.8
1981-08-29 09:11:54.930 ,0,0,0.,4.8,0.,4.8,0.,4.8,0.,4.8
1981-08-29 09:11:59.730 ,0,0,0.,4.8,0.,4.8,0.,4.8,0.,4.8
1981-08-29 09:12:04.530 ,0,0,0.,4.8,0.,4.8,0.,4.8,0.,4.8
1981-08-29 09:12:09.330 ,0,0,0.,4.8,0.,4.8,0.,4.8,0.,4.8
1981-08-29 09:12:14.130 ,0,0,1.,4.8,0.,4.8,0.,4.8,0.,4.8
1981-08-29 09:12:18.930 ,0,0,0.,4.8,0.,4.8,0.,4.8,0.,4.8
1981-08-29 09:12:23.730 ,0,0,0.,4.8,0.,4.8,0.,4.8,0.,4.8
1981-08-29 09:12:28.530 ,0,0,0.,4.8,0.,4.8,1.,4.8,0.,4.8
1981-08-29 09:12:33.330 ,0,0,0.,4.8,0.,4.8,0.,4.8,0.,4.8
1981-08-29 09:12:38.130 ,0,0,0.,4.8,0.,4.8,0.,4.8,0.,4.8
1981-08-29 09:12:42.930 ,0,0,0.,4.8,0.,4.8,0.,4.8,0.,4.8
1981-08-29 09:12:47.730 ,1,0,1.,4.8,0.,4.8,0.,4.8,0.,4.8
1981-08-29 09:12:52.530 ,1,0,0.,4.8,0.,4.8,0.,4.8,0.,4.8
1981-08-29 09:12:57.330 ,1,0,1.,4.8,0.,4.8,0.,4.8,0.,4.8
1981-08-29 09:13:02.130 ,1,0,0.,4.8,0.,4.8,0.,4.8,0.,4.8
1981-08-29 09:13:06.930 ,1,0,0.,4.8,0.,4.8,0.,4.8,0.,4.8
1981-08-29 09:13:11.730 ,1,0,0.,4.8,0.,4.8,0.,4.8,0.,4.8
1981-08-29 09:13:16.530 ,1,0,1.,4.8,0.,4.8,0.,4.8,0.,4.8
1981-08-29 09:13:21.330 ,1,0,0.,4.8,0.,4.8,0.,4.8,0.,4.8
1981-08-29 09:13:26.130 ,1,0,0.,4.8,0.,4.8,0.,4.8,0.,4.8
1981-08-29 09:13:30.930 ,1,0,0.,4.8,0.,4.8,1.,4.8,0.,4.8
1981-08-29 09:13:35.730 ,2,0,0.,4.8,0.,4.8,0.,4.8,0.,4.8
1981-08-29 09:13:40.530 ,2,0,0.,4.8,0.,4.8,0.,4.8,0.,4.8
1981-08-29 09:13:45.330 ,2,0,0.,4.8,0.,4.8,0.,4.8,0.,4.8
1981-08-29 09:13:50.130 ,2,0,0.,4.8,0.,4.8,0.,4.8,0.,4.8
1981-08-29 09:13:54.930 ,2,0,0.,4.8,0.,4.8,0.,4.8,0.,4.8
1981-08-29 09:13:59.730 ,2,0,1.,4.8,0.,4.8,0.,4.8,0.,4.8
1981-08-29 09:14:04.530 ,2,0,0.,4.8,0.,4.8,0.,4.8,0.,4.8
1981-08-29 09:14:09.330 ,2,0,0.,4.8,0.,4.8,0.,4.8,0.,4.8
1981-08-29 09:14:14.130 ,2,0,4.,4.8,0.,4.8,0.,4.8,0.,4.8
1981-08-29 09:14:18.930 ,2,0,1.,4.8,0.,4.8,0.,4.8,0.,4.8
1981-08-29 09:14:23.730 ,3,0,0.,4.8,0.,4.8,1.,4.8,0.,4.8
1981-08-29 09:14:28.530 ,3,0,0.,4.8,0.,4.8,0.,4.8,0.,4.8
1981-08-29 09:14:33.330 ,3,0,0.,4.8,0.,4.8,0.,4.8,0.,4.8
1981-08-29 09:14:38.130 ,3,0,0.,4.8,0.,4.8,0.,4.8,0.,4.8
1981-08-29 09:14:42.930 ,3,0,1.,4.8,0.,4.8,0.,4.8,0.,4.8
1981-08-29 09:14:47.730 ,3,0,0.,4.8,0.,4.8,0.,4.8,0.,4.8
1981-08-29 09:14:52.530 ,3,0,0.,4.8,0.,4.8,0.,4.8,0.,4.8
1981-08-29 09:14:57.330 ,3,0,1.,4.8,0.,4.8,0.,4.8,0.,4.8
1981-08-29 09:15:02.130 ,3,0,0.,4.8,0.,4.8,0.,4.8,0.,4.8
1981-08-29 09:15:06.930 ,3,0,1.,4.8,0.,4.8,0.,4.8,0.,4.8
1981-08-29 09:15:11.730 ,4,0,0.,4.8,0.,4.8,1.,4.8,0.,4.8
1981-08-29 09:15:16.530 ,4,0,0.,4.8,0.,4.8,0.,4.8,0.,4.8
1981-08-29 09:15:21.330 ,4,0,0.,4.8,0.,4.8,0.,4.8,0.,4.8
1981-08-29 09:15:26.130 ,4,0,0.,4.8,0.,4.8,0.,4.8,0.,4.8
1981-08-29 09:15:30.930 ,4,0,1.,4.8,0.,4.8,0.,4.8,0.,4.8
1981-08-29 09:15:35.730 ,4,0,1.,4.8,0.,4.8,0.,4.8,0.,4.8
1981-08-29 09:15:40.530 ,4,0,0.,4.8,0.,4.8,0.,4.8,0.,4.8
1981-08-29 09:15:45.330 ,4,0,0.,4.8,0.,4.8,0.,4.8,0.,4.8
1981-08-29 09:15:50.130 ,4,0,0.,4.8,0.,4.8,0.,4.8,0.,4.8
1981-08-29 09:15:54.930 ,4,0,1.,4.8,0.,4.8,0.,4.8,0.,4.8
1981-08-29 09:15:59.730 ,5,0,0.,4.8,0.,4.8,1.,4.8,0.,4.8
1981-08-29 09:16:04.530 ,5,0,1.,4.8,0.,4.8,0.,4.8,0.,4.8
1981-08-29 09:16:09.330 ,5,0,2.,4.8,0.,4.8,0.,4.8,0.,4.8
1981-08-29 09:16:14.130 ,5,0,0.,4.8,0.,4.8,0.,4.8,0.,4.8
1981-08-29 09:16:18.930 ,5,0,0.,4.8,0.,4.8,0.,4.8,0.,4.8
1981-08-29 09:16:23.730 ,5,0,0.,4.8,0.,4.8,0.,4.8,0.,4.8
1981-08-29 09:16:28.530 ,5,0,0.,4.8,0.,4.8,0.,4.8,0.,4.8
1981-08-29 09:16:33.330 ,5,0,0.,4.8,0.,4.8,1.,4.8,0.,4.8
1981-08-29 09:16:38.130 ,5,0,0.,4.8,0.,4.8,0.,4.8,0.,4.8
1981-08-29 09:16:42.930 ,5,0,0.,4.8,0.,4.8,0.,4.8,0.,4.8
1981-08-29 09:16:47.730 ,6,0,0.,4.8,0.,4.8,0.,4.8,0.,4.8
1981-08-29 09:16:52.530 ,6,0,0.,4.8,0.,4.8,0.,4.8,0.,4.8
1981-08-29 09:16:57.330 ,6,0,0.,4.8,0.,4.8,0.,4.8,0.,4.8
1981-08-29 09:17:02.130 ,6,0,1.,4.8,0.,4.8,0.,4.8,0.,4.8
1981-08-29 09:17:06.930 ,6,0,0.,4.8,0.,4.8,0.,4.8,0.,4.8
1981-08-29 09:17:11.730 ,6,0,0.,4.8,0.,4.8,0.,4.8,0.,4.8
1981-08-29 09:17:16.530 ,6,0,1.,4.8,0.,4.8,1.,4.8,0.,4.8
1981-08-29 09:17:21.330 ,6,0,1.,4.8,0.,4.8,0.,4.8,0.,4.8
1981-08-29 09:17:26.130 ,6,0,0.,4.8,0.,4.8,0.,4.8,0.,4.8
1981-08-29 09:17:30.930 ,6,0,0.,4.8,0.,4.8,0.,4.8,0.,4.8
1981-08-29 09:17:35.730 ,7,0,0.,4.8,0.,4.8,0.,4.8,0.,4.8
1981-08-29 09:17:40.530 ,7,0,0.,4.8,0.,4.8,0.,4.8,0.,4.8
1981-08-29 09:17:45.330 ,7,0,0.,4.8,0.,4.8,1.,4.8,0.,4.8
1981-08-29 09:17:50.130 ,7,0,0.,4.8,0.,4.8,0.,4.8,0.,4.8
1981-08-29 09:17:54.930 ,7,0,0.,4.8,0.,4.8,0.,4.8,0.,4.8
1981-08-29 09:17:59.730 ,7,0,1.,4.8,0.,4.8,0.,4.8,0.,4.8
1981-08-29 09:18:04.530 ,7,0,1.,4.8,0.,4.8,1.,4.8,0.,4.8
1981-08-29 09:18:09.330 ,7,0,0.,4.8,0.,4.8,0.,4.8,0.,4.8
1981-08-29 09:18:14.130 ,7,0,0.,4.8,0.,4.8,0.,4.8,0.,4.8
1981-08-29 09:18:18.930 ,7,0,0.,4.8,0.,4.8,0.,4.8,0.,4.8
1981-08-29 09:18:23.730 ,7,0,1.,4.8,1.,4.8,0.,4.8,0.,4.8
1981-08-29 09:18:28.530 ,7,0,0.,4.8,0.,4.8,0.,4.8,0.,4.8
1981-08-29 09:18:33.330 ,7,0,0.,4.8,0.,4.8,0.,4.8,0.,4.8
1981-08-29 09:18:38.130 ,7,0,0.,4.8,0.,4.8,0.,4.8,0.,4.8
1981-08-29 09:18:42.930 ,7,0,0.,4.8,0.,4.8,0.,4.8,0.,4.8
1981-08-29 09:18:47.730 ,6,0,0.,4.8,0.,4.8,0.,4.8,0.,4.8
1981-08-29 09:18:52.530 ,6,0,0.,4.8,0.,4.8,0.,4.8,0.,4.8
1981-08-29 09:18:57.330 ,6,0,0.,4.8,0.,4.8,0.,4.8,0.,4.8
1981-08-29 09:19:02.130 ,6,0,0.,4.8,0.,4.8,0.,4.8,0.,4.8
1981-08-29 09:19:06.930 ,6,0,0.,4.8,0.,4.8,0.,4.8,0.,4.8
1981-08-29 09:19:11.730 ,5,0,0.,4.8,0.,4.8,0.,4.8,0.,4.8
1981-08-29 09:19:16.530 ,5,0,0.,4.8,0.,4.8,0.,4.8,0.,4.8
1981-08-29 09:19:21.330 ,5,0,1.,4.8,0.,4.8,0.,4.8,0.,4.8
1981-08-29 09:19:26.130 ,5,0,1.,4.8,0.,4.8,0.,4.8,0.,4.8
1981-08-29 09:19:30.930 ,5,0,0.,4.8,0.,4.8,0.,4.8,0.,4.8
1981-08-29 09:19:35.730 ,4,0,0.,4.8,0.,4.8,0.,4.8,0.,4.8
1981-08-29 09:19:40.530 ,4,0,0.,4.8,0.,4.8,0.,4.8,0.,4.8
1981-08-29 09:19:45.330 ,4,0,0.,4.8,0.,4.8,0.,4.8,0.,4.8
1981-08-29 09:19:50.130 ,4,0,0.,4.8,0.,4.8,0.,4.8,0.,4.8
1981-08-29 09:19:54.930 ,4,0,1.,4.8,1.,4.8,0.,4.8,0.,4.8
1981-08-29 09:19:59.730 ,3,0,0.,4.8,0.,4.8,0.,4.8,0.,4.8
1981-08-29 09:20:04.530 ,3,0,0.,4.8,0.,4.8,0.,4.8,0.,4.8
1981-08-29 09:20:09.330 ,3,0,0.,4.8,0.,4.8,0.,4.8,0.,4.8
1981-08-29 09:20:14.130 ,3,0,0.,4.8,0.,4.8,0.,4.8,0.,4.8
1981-08-29 09:20:18.930 ,3,0,0.,4.8,0.,4.8,1.,4.8,0.,4.8
1981-08-29 09:20:23.730 ,2,0,1.,4.8,1.,4.8,0.,4.8,0.,4.8
1981-08-29 09:20:28.530 ,2,0,0.,4.8,0.,4.8,0.,4.8,0.,4.8
1981-08-29 09:20:33.330 ,2,0,0.,4.8,0.,4.8,0.,4.8,0.,4.8
1981-08-29 09:20:38.130 ,2,0,0.,4.8,0.,4.8,0.,4.8,0.,4.8
1981-08-29 09:20:42.930 ,2,0,1.,4.8,0.,4.8,0.,4.8,0.,4.8
1981-08-29 09:20:47.730 ,1,0,0.,4.8,0.,4.8,0.,4.8,0.,4.8
1981-08-29 09:20:52.530 ,1,0,2.,4.8,0.,4.8,0.,4.8,0.,4.8
1981-08-29 09:20:57.330 ,1,0,0.,4.8,0.,4.8,0.,4.8,0.,4.8
1981-08-29 09:21:02.130 ,1,0,1.,4.8,0.,4.8,0.,4.8,0.,4.8
1981-08-29 09:21:06.930 ,1,0,0.,4.8,0.,4.8,1.,4.8,0.,4.8
1981-08-29 09:21:11.730 ,0,0,0.,4.8,0.,4.8,0.,4.8,0.,4.8
1981-08-29 09:21:16.530 ,0,0,0.,4.8,0.,4.8,0.,4.8,0.,4.8
1981-08-29 09:21:21.330 ,0,0,4.,4.8,0.,4.8,0.,4.8,0.,4.8
1981-08-29 09:21:26.130 ,0,0,1.,4.8,0.,4.8,0.,4.8,0.,4.8
1981-08-29 09:21:30.930 ,0,0,0.,4.8,0.,4.8,0.,4.8,0.,4.8
1981-08-29 09:21:35.730 ,0,0,0.,4.8,0.,4.8,0.,4.8,0.,4.8
1981-08-29 09:21:40.530 ,0,0,1.,4.8,0.,4.8,0.,4.8,0.,4.8
1981-08-29 09:21:45.330 ,0,0,0.,4.8,0.,4.8,0.,4.8,0.,4.8
1981-08-29 09:21:50.130 ,0,0,2.,4.8,0.,4.8,0.,4.8,0.,4.8
1981-08-29 09:21:54.930 ,0,0,0.,4.8,0.,4.8,0.,4.8,0.,4.8
1981-08-29 09:21:59.730 ,1,0,1.,4.8,0.,4.8,0.,4.8,0.,4.8
1981-08-29 09:22:04.530 ,1,0,1.,4.8,0.,4.8,0.,4.8,0.,4.8
1981-08-29 09:22:09.330 ,1,0,2.,4.8,0.,4.8,0.,4.8,0.,4.8
1981-08-29 09:22:14.130 ,1,0,0.,4.8,0.,4.8,0.,4.8,0.,4.8
1981-08-29 09:22:18.930 ,1,0,1.,4.8,0.,4.8,0.,4.8,0.,4.8
1981-08-29 09:22:23.730 ,2,0,2.,4.8,0.,4.8,0.,4.8,0.,4.8
1981-08-29 09:22:28.530 ,2,0,0.,4.8,0.,4.8,0.,4.8,0.,4.8
1981-08-29 09:22:33.330 ,2,0,0.,4.8,0.,4.8,0.,4.8,0.,4.8
1981-08-29 09:22:38.130 ,2,0,1.,4.8,0.,4.8,0.,4.8,0.,4.8
1981-08-29 09:22:42.930 ,2,0,0.,4.8,0.,4.8,0.,4.8,0.,4.8
1981-08-29 09:22:47.730 ,3,0,0.,4.8,0.,4.8,0.,4.8,0.,4.8
1981-08-29 09:22:52.530 ,3,0,0.,4.8,0.,4.8,0.,4.8,0.,4.8
1981-08-29 09:22:57.330 ,3,0,0.,4.8,0.,4.8,0.,4.8,0.,4.8
1981-08-29 09:23:02.130 ,3,0,1.,4.8,0.,4.8,0.,4.8,0.,4.8
1981-08-29 09:23:06.930 ,3,0,0.,4.8,0.,4.8,0.,4.8,0.,4.8
1981-08-29 09:23:11.730 ,4,0,0.,4.8,0.,4.8,0.,4.8,0.,4.8
1981-08-29 09:23:16.530 ,4,0,0.,4.8,0.,4.8,0.,4.8,0.,4.8
1981-08-29 09:23:21.330 ,4,0,1.,4.8,0.,4.8,0.,4.8,0.,4.8
1981-08-29 09:23:26.130 ,4,0,0.,4.8,0.,4.8,0.,4.8,0.,4.8
1981-08-29 09:23:30.930 ,4,0,0.,4.8,0.,4.8,0.,4.8,0.,4.8
1981-08-29 09:23:35.730 ,5,0,0.,4.8,0.,4.8,0.,4.8,0.,4.8
1981-08-29 09:23:40.530 ,5,0,0.,4.8,0.,4.8,0.,4.8,0.,4.8
1981-08-29 09:23:45.330 ,5,0,0.,4.8,0.,4.8,0.,4.8,0.,4.8
1981-08-29 09:23:50.130 ,5,0,0.,4.8,0.,4.8,0.,4.8,0.,4.8
1981-08-29 09:23:54.930 ,5,0,0.,4.8,0.,4.8,0.,4.8,0.,4.8
1981-08-29 09:23:59.730 ,6,0,0.,4.8,0.,4.8,0.,4.8,0.,4.8
1981-08-29 09:24:04.530 ,6,0,0.,4.8,0.,4.8,1.,4.8,0.,4.8
1981-08-29 09:24:09.330 ,6,0,0.,4.8,0.,4.8,0.,4.8,0.,4.8
1981-08-29 09:24:14.130 ,6,0,0.,4.8,0.,4.8,0.,4.8,0.,4.8
1981-08-29 09:24:18.930 ,6,0,1.,4.8,0.,4.8,0.,4.8,0.,4.8
1981-08-29 09:24:23.730 ,7,0,0.,4.8,0.,4.8,0.,4.8,0.,4.8
1981-08-29 09:24:28.530 ,7,0,0.,4.8,0.,4.8,0.,4.8,0.,4.8
1981-08-29 09:24:33.330 ,7,0,0.,4.8,0.,4.8,0.,4.8,0.,4.8
1981-08-29 09:24:38.130 ,7,0,0.,4.8,0.,4.8,0.,4.8,0.,4.8
1981-08-29 09:24:42.930 ,7,0,1.,4.8,0.,4.8,0.,4.8,0.,4.8
1981-08-29 09:24:47.730 ,7,0,1.,4.8,0.,4.8,0.,4.8,0.,4.8
1981-08-29 09:24:52.530 ,7,0,1.,4.8,0.,4.8,0.,4.8,0.,4.8
1981-08-29 09:24:57.330 ,7,0,1.,4.8,0.,4.8,0.,4.8,0.,4.8
1981-08-29 09:25:02.130 ,7,0,0.,4.8,0.,4.8,0.,4.8,0.,4.8
1981-08-29 09:25:06.930 ,7,0,1.,4.8,0.,4.8,0.,4.8,0.,4.8
1981-08-29 09:25:11.730 ,7,0,0.,4.8,0.,4.8,0.,4.8,0.,4.8
1981-08-29 09:25:16.530 ,7,0,0.,4.8,0.,4.8,0.,4.8,0.,4.8
1981-08-29 09:25:21.330 ,7,0,1.,4.8,0.,4.8,0.,4.8,0.,4.8
1981-08-29 09:25:26.130 ,7,0,1.,4.8,0.,4.8,1.,4.8,0.,4.8
1981-08-29 09:25:30.930 ,7,0,0.,4.8,0.,4.8,0.,4.8,0.,4.8
1981-08-29 09:25:35.730 ,6,0,1.,4.8,0.,4.8,0.,4.8,0.,4.8
1981-08-29 09:25:40.530 ,6,0,0.,4.8,0.,4.8,0.,4.8,0.,4.8
1981-08-29 09:25:45.330 ,6,0,0.,4.8,0.,4.8,1.,4.8,0.,4.8
1981-08-29 09:25:50.130 ,6,0,0.,4.8,0.,4.8,0.,4.8,0.,4.8
1981-08-29 09:25:54.930 ,6,0,0.,4.8,0.,4.8,0.,4.8,0.,4.8
1981-08-29 09:25:59.730 ,6,0,0.,4.8,0.,4.8,0.,4.8,0.,4.8
1981-08-29 09:26:04.530 ,6,0,1.,4.8,0.,4.8,0.,4.8,0.,4.8
1981-08-29 09:26:09.330 ,6,0,1.,4.8,0.,4.8,0.,4.8,0.,4.8
1981-08-29 09:26:14.130 ,6,0,0.,4.8,0.,4.8,0.,4.8,0.,4.8
1981-08-29 09:26:18.930 ,6,0,1.,4.8,0.,4.8,0.,4.8,0.,4.8
1981-08-29 09:26:23.730 ,5,0,1.,4.8,0.,4.8,0.,4.8,0.,4.8
1981-08-29 09:26:28.530 ,5,0,2.,4.8,0.,4.8,0.,4.8,0.,4.8
1981-08-29 09:26:33.330 ,5,0,1.,4.8,0.,4.8,0.,4.8,0.,4.8
1981-08-29 09:26:38.130 ,5,0,0.,4.8,0.,4.8,0.,4.8,0.,4.8
1981-08-29 09:26:42.930 ,5,0,1.,4.8,0.,4.8,0.,4.8,0.,4.8
1981-08-29 09:26:47.730 ,5,0,0.,4.8,0.,4.8,0.,4.8,0.,4.8
1981-08-29 09:26:52.530 ,5,0,0.,4.8,0.,4.8,0.,4.8,0.,4.8
1981-08-29 09:26:57.330 ,5,0,0.,4.8,0.,4.8,0.,4.8,0.,4.8
1981-08-29 09:27:02.130 ,5,0,1.,4.8,0.,4.8,0.,4.8,0.,4.8
1981-08-29 09:27:06.930 ,5,0,1.,4.8,0.,4.8,0.,4.8,0.,4.8
1981-08-29 09:27:11.730 ,4,0,0.,4.8,0.,4.8,0.,4.8,0.,4.8
1981-08-29 09:27:16.530 ,4,0,0.,4.8,0.,4.8,0.,4.8,0.,4.8
1981-08-29 09:27:21.330 ,4,0,0.,4.8,0.,4.8,0.,4.8,0.,4.8
1981-08-29 09:27:26.130 ,4,0,1.,4.8,0.,4.8,1.,4.8,0.,4.8
1981-08-29 09:27:30.930 ,4,0,0.,4.8,0.,4.8,0.,4.8,0.,4.8
1981-08-29 09:27:35.730 ,4,0,0.,4.8,0.,4.8,1.,4.8,0.,4.8
1981-08-29 09:27:40.530 ,4,0,1.,4.8,0.,4.8,0.,4.8,0.,4.8
1981-08-29 09:27:45.330 ,4,0,2.,4.8,0.,4.8,0.,4.8,0.,4.8
1981-08-29 09:27:50.130 ,4,0,0.,4.8,0.,4.8,0.,4.8,0.,4.8
1981-08-29 09:27:54.930 ,4,0,0.,4.8,0.,4.8,0.,4.8,0.,4.8
1981-08-29 09:27:59.730 ,3,0,0.,4.8,0.,4.8,0.,4.8,0.,4.8
1981-08-29 09:28:04.530 ,3,0,0.,4.8,0.,4.8,0.,4.8,0.,4.8
1981-08-29 09:28:09.330 ,3,0,1.,4.8,0.,4.8,0.,4.8,0.,4.8
1981-08-29 09:28:14.130 ,3,0,0.,4.8,0.,4.8,0.,4.8,0.,4.8
1981-08-29 09:28:18.930 ,3,0,1.,4.8,0.,4.8,1.,4.8,0.,4.8
1981-08-29 09:28:23.730 ,3,0,0.,4.8,0.,4.8,0.,4.8,0.,4.8
1981-08-29 09:28:28.530 ,3,0,0.,4.8,0.,4.8,0.,4.8,0.,4.8
1981-08-29 09:28:33.330 ,3,0,0.,4.8,0.,4.8,0.,4.8,0.,4.8
1981-08-29 09:28:38.130 ,3,0,0.,4.8,0.,4.8,0.,4.8,0.,4.8
1981-08-29 09:28:42.930 ,3,0,0.,4.8,0.,4.8,0.,4.8,0.,4.8
1981-08-29 09:28:47.730 ,2,0,1.,4.8,0.,4.8,0.,4.8,0.,4.8
1981-08-29 09:28:52.530 ,2,0,1.,4.8,1.,4.8,0.,4.8,0.,4.8
1981-08-29 09:28:57.330 ,2,0,1.,4.8,0.,4.8,0.,4.8,0.,4.8
1981-08-29 09:29:02.130 ,2,0,1.,4.8,0.,4.8,0.,4.8,0.,4.8
1981-08-29 09:29:06.930 ,2,0,0.,4.8,0.,4.8,0.,4.8,0.,4.8
1981-08-29 09:29:11.730 ,2,0,0.,4.8,0.,4.8,0.,4.8,0.,4.8
1981-08-29 09:29:16.530 ,2,0,0.,4.8,0.,4.8,0.,4.8,0.,4.8
1981-08-29 09:29:21.330 ,2,0,0.,4.8,0.,4.8,1.,4.8,0.,4.8
1981-08-29 09:29:26.130 ,2,0,0.,4.8,0.,4.8,0.,4.8,0.,4.8
1981-08-29 09:29:30.930 ,2,0,1.,4.8,0.,4.8,0.,4.8,0.,4.8
1981-08-29 09:29:35.730 ,1,0,0.,4.8,0.,4.8,0.,4.8,0.,4.8
1981-08-29 09:29:40.530 ,1,0,0.,4.8,0.,4.8,0.,4.8,0.,4.8
1981-08-29 09:29:45.330 ,1,0,0.,4.8,0.,4.8,0.,4.8,0.,4.8
1981-08-29 09:29:50.130 ,1,0,0.,4.8,0.,4.8,0.,4.8,0.,4.8
1981-08-29 09:29:54.930 ,1,0,1.,4.8,0.,4.8,0.,4.8,0.,4.8
1981-08-29 09:29:59.730 ,1,0,1.,4.8,0.,4.8,0.,4.8,0.,4.8
1981-08-29 09:30:04.530 ,1,0,1.,4.8,0.,4.8,0.,4.8,0.,4.8
1981-08-29 09:30:09.330 ,1,0,0.,4.8,0.,4.8,1.,4.8,0.,4.8
1981-08-29 09:30:14.130 ,1,0,0.,4.8,0.,4.8,0.,4.8,0.,4.8
1981-08-29 09:30:18.930 ,1,0,1.,4.8,0.,4.8,0.,4.8,0.,4.8
1981-08-29 09:30:23.730 ,0,0,0.,4.8,0.,4.8,0.,4.8,0.,4.8
1981-08-29 09:30:28.530 ,0,0,0.,4.8,0.,4.8,0.,4.8,0.,4.8
1981-08-29 09:30:33.330 ,0,0,0.,4.8,0.,4.8,0.,4.8,0.,4.8
1981-08-29 09:30:38.130 ,0,0,0.,4.8,0.,4.8,0.,4.8,0.,4.8
1981-08-29 09:30:42.930 ,0,0,0.,4.8,0.,4.8,0.,4.8,0.,4.8
1981-08-29 09:30:47.730 ,0,0,0.,4.8,0.,4.8,0.,4.8,0.,4.8
1981-08-29 09:30:52.530 ,0,0,0.,4.8,0.,4.8,0.,4.8,0.,4.8
1981-08-29 09:30:57.330 ,0,0,0.,4.8,0.,4.8,0.,4.8,0.,4.8
1981-08-29 09:31:02.130 ,0,0,0.,4.8,0.,4.8,0.,4.8,0.,4.8
1981-08-29 09:31:06.930 ,0,0,0.,4.8,0.,4.8,0.,4.8,0.,4.8
1981-08-29 09:31:11.730 ,0,0,0.,4.8,0.,4.8,0.,4.8,0.,4.8
1981-08-29 09:31:16.530 ,0,0,0.,4.8,0.,4.8,0.,4.8,0.,4.8
1981-08-29 09:31:21.330 ,0,0,0.,4.8,0.,4.8,0.,4.8,0.,4.8
1981-08-29 09:31:26.130 ,0,0,0.,4.8,0.,4.8,0.,4.8,0.,4.8
1981-08-29 09:31:30.930 ,0,0,0.,4.8,0.,4.8,0.,4.8,0.,4.8
1981-08-29 09:31:35.730 ,0,0,1.,4.8,1.,4.8,0.,4.8,0.,4.8
1981-08-29 09:31:40.530 ,0,0,1.,4.8,0.,4.8,0.,4.8,0.,4.8
1981-08-29 09:31:45.330 ,0,0,0.,4.8,0.,4.8,0.,4.8,0.,4.8
1981-08-29 09:31:50.130 ,0,0,0.,4.8,0.,4.8,0.,4.8,0.,4.8
1981-08-29 09:31:54.930 ,0,0,1.,4.8,0.,4.8,0.,4.8,0.,4.8
1981-08-29 09:31:59.730 ,1,0,1.,4.8,0.,4.8,0.,4.8,0.,4.8
1981-08-29 09:32:04.530 ,1,0,0.,4.8,0.,4.8,0.,4.8,0.,4.8
1981-08-29 09:32:09.330 ,1,0,0.,4.8,0.,4.8,1.,4.8,0.,4.8
1981-08-29 09:32:14.130 ,1,0,0.,4.8,0.,4.8,0.,4.8,0.,4.8
1981-08-29 09:32:18.930 ,1,0,0.,4.8,0.,4.8,0.,4.8,0.,4.8
1981-08-29 09:32:23.730 ,1,0,0.,4.8,0.,4.8,0.,4.8,0.,4.8
1981-08-29 09:32:28.530 ,1,0,0.,4.8,0.,4.8,0.,4.8,0.,4.8
1981-08-29 09:32:33.330 ,1,0,0.,4.8,0.,4.8,0.,4.8,0.,4.8
1981-08-29 09:32:38.130 ,1,0,0.,4.8,0.,4.8,0.,4.8,0.,4.8
1981-08-29 09:32:42.930 ,1,0,2.,4.8,0.,4.8,0.,4.8,0.,4.8
1981-08-29 09:32:47.730 ,2,0,0.,4.8,0.,4.8,0.,4.8,0.,4.8
1981-08-29 09:32:52.530 ,2,0,0.,4.8,0.,4.8,0.,4.8,0.,4.8
1981-08-29 09:32:57.330 ,2,0,0.,4.8,0.,4.8,0.,4.8,0.,4.8
1981-08-29 09:33:02.130 ,2,0,0.,4.8,0.,4.8,0.,4.8,0.,4.8
1981-08-29 09:33:06.930 ,2,0,1.,4.8,0.,4.8,0.,4.8,0.,4.8
1981-08-29 09:33:11.730 ,2,0,0.,4.8,0.,4.8,0.,4.8,0.,4.8
1981-08-29 09:33:16.530 ,2,0,1.,4.8,0.,4.8,0.,4.8,0.,4.8